• In United Kingdom
  • List of Countries
  • For 7 days
  • Water Temperature
  • Satellite Maps
  • Weather Map
  • Weather Widgets
  • user-avatar
    Login

    Hourly Weather Ghazni

    Today, 21 September, Friday

    Time Temperature Precipitation Wind Pressure Humidity
    00:00 +19°C° 0 mm 3 mps 588 mmHg 26%
    01:00 +18°C° 0 mm 2 mps 587 mmHg 29%
    02:00 +17°C° 0 mm 2 mps 587 mmHg 32%
    03:00 +17°C° 0 mm 2 mps 587 mmHg 34%
    04:00 +16°C° 0 mm 2 mps 587 mmHg 36%
    05:00 +16°C° 0 mm 2 mps 587 mmHg 38%
    06:00 +17°C° 0 mm 2 mps 587 mmHg 38%
    07:00 +17°C° 0 mm 2 mps 588 mmHg 37%
    08:00 +18°C° 0 mm 2 mps 589 mmHg 36%
    09:00 +19°C° 0 mm 2 mps 589 mmHg 32%
    10:00 +21°C° 0 mm 2 mps 589 mmHg 28%
    11:00 +23°C° 0 mm 2 mps 590 mmHg 23%
    12:00 +24°C° 0 mm 3 mps 590 mmHg 19%
    13:00 +25°C° 0 mm 4 mps 590 mmHg 16%
    14:00 +26°C° 0 mm 5 mps 590 mmHg 13%
    15:00 +26°C° 0 mm 5 mps 590 mmHg 12%
    16:00 +26°C° 0 mm 5 mps 590 mmHg 11%
    17:00 +26°C° 0 mm 5 mps 590 mmHg 10%
    18:00 +25°C° 0 mm 5 mps 589 mmHg 13%
    19:00 +22°C° 0 mm 4 mps 589 mmHg 17%
    20:00 +21°C° 0 mm 4 mps 589 mmHg 20%
    21:00 +20°C° 0 mm 4 mps 589 mmHg 24%
    22:00 +19°C° 0 mm 3 mps 589 mmHg 29%
    23:00 +19°C° 0 mm 3 mps 589 mmHg 33%

    Tomorrow, 22 September, Saturday

    Time Temperature Precipitation Wind Pressure Humidity
    00:00 +18°C° 0 mm 3 mps 589 mmHg 35%
    01:00 +17°C° 0 mm 2 mps 588 mmHg 37%
    02:00 +16°C° 0 mm 2 mps 588 mmHg 40%
    03:00 +16°C° 0 mm 2 mps 588 mmHg 41%
    04:00 +15°C° 0 mm 2 mps 588 mmHg 42%
    05:00 +15°C° 0 mm 2 mps 587 mmHg 44%
    06:00 +16°C° 0 mm 2 mps 588 mmHg 42%
    07:00 +16°C° 0 mm 2 mps 588 mmHg 39%
    08:00 +17°C° 0 mm 2 mps 589 mmHg 37%
    09:00 +18°C° 0 mm 2 mps 589 mmHg 33%
    10:00 +20°C° 0 mm 2 mps 590 mmHg 29%
    11:00 +21°C° 0 mm 2 mps 590 mmHg 24%
    12:00 +22°C° 0 mm 3 mps 590 mmHg 22%
    13:00 +23°C° 0 mm 4 mps 590 mmHg 20%
    14:00 +25°C° 0 mm 4 mps 590 mmHg 18%
    15:00 +25°C° 0 mm 4 mps 590 mmHg 17%
    16:00 +25°C° 0 mm 4 mps 590 mmHg 16%
    17:00 +25°C° 0 mm 4 mps 589 mmHg 15%
    18:00 +23°C° 0 mm 4 mps 589 mmHg 16%
    19:00 +22°C° 0 mm 3 mps 589 mmHg 17%
    20:00 +20°C° 0 mm 2 mps 589 mmHg 18%
    21:00 +20°C° 0 mm 2 mps 589 mmHg 20%
    22:00 +19°C° 0 mm 2 mps 589 mmHg 21%
    23:00 +18°C° 0 mm 2 mps 589 mmHg 23%

    Day after tomorrow, 23 September, Sunday

    Time Temperature Precipitation Wind Pressure Humidity
    00:00 +17°C° 0 mm 2 mps 588 mmHg 25%
    01:00 +16°C° 0 mm 1 mps 588 mmHg 27%
    02:00 +16°C° 0 mm 1 mps 588 mmHg 28%
    03:00 +15°C° 0 mm 1 mps 587 mmHg 30%
    04:00 +14°C° 0 mm 1 mps 587 mmHg 32%
    05:00 +14°C° 0 mm 1 mps 586 mmHg 34%
    06:00 +15°C° 0 mm 1 mps 587 mmHg 32%
    07:00 +15°C° 0 mm 1 mps 588 mmHg 30%
    08:00 +16°C° 0 mm 1 mps 588 mmHg 28%
    09:00 +19°C° 0 mm 1 mps 589 mmHg 24%
    10:00 +20°C° 0 mm 1 mps 589 mmHg 20%
    11:00 +20°C° 0 mm 2 mps 589 mmHg 15%
    12:00 +21°C° 0 mm 2 mps 589 mmHg 14%
    13:00 +22°C° 0 mm 3 mps 589 mmHg 12%
    14:00 +24°C° 0 mm 3 mps 589 mmHg 10%
    15:00 +24°C° 0 mm 3 mps 589 mmHg 10%
    16:00 +24°C° 0 mm 3 mps 588 mmHg 9%
    17:00 +24°C° 0 mm 3 mps 588 mmHg 9%
    18:00 +22°C° 0 mm 3 mps 588 mmHg 10%
    19:00 +21°C° 0 mm 2 mps 588 mmHg 12%
    20:00 +19°C° 0 mm 2 mps 588 mmHg 13%
    21:00 +19°C° 0 mm 2 mps 588 mmHg 15%
    22:00 +18°C° 0 mm 2 mps 588 mmHg 17%
    23:00 +17°C° 0 mm 2 mps 588 mmHg 19%

    24 September, Monday

    Time Temperature Precipitation Wind Pressure Humidity
    00:00 +16°C° 0 mm 1 mps 587 mmHg 21%
    01:00 +16°C° 0 mm 1 mps 587 mmHg 23%
    02:00 +15°C° 0 mm 1 mps 586 mmHg 26%
    03:00 +14°C° 0 mm 1 mps 586 mmHg 28%
    04:00 +14°C° 0 mm 1 mps 586 mmHg 31%
    05:00 +13°C° 0 mm 1 mps 585 mmHg 33%
    06:00 +14°C° 0 mm 1 mps 586 mmHg 32%
    07:00 +15°C° 0 mm 1 mps 586 mmHg 31%
    08:00 +16°C° 0 mm 1 mps 587 mmHg 30%
    09:00 +18°C° 0 mm 1 mps 587 mmHg 27%
    10:00 +19°C° 0 mm 1 mps 588 mmHg 24%
    11:00 +21°C° 0 mm 1 mps 588 mmHg 20%
    12:00 +22°C° 0 mm 1 mps 588 mmHg 18%
    13:00 +23°C° 0 mm 2 mps 588 mmHg 16%
    14:00 +24°C° 0 mm 3 mps 588 mmHg 14%
    15:00 +24°C° 0 mm 3 mps 588 mmHg 13%
    16:00 +23°C° 0 mm 4 mps 588 mmHg 13%
    17:00 +23°C° 0 mm 4 mps 587 mmHg 13%
    18:00 +22°C° 0 mm 4 mps 587 mmHg 14%
    19:00 +21°C° 0 mm 4 mps 587 mmHg 16%
    20:00 +20°C° 0 mm 3 mps 587 mmHg 18%
    21:00 +19°C° 0 mm 3 mps 587 mmHg 20%
    22:00 +18°C° 0 mm 3 mps 587 mmHg 21%
    23:00 +17°C° 0 mm 2 mps 587 mmHg 23%

    25 September, Tuesday

    Time Temperature Precipitation Wind Pressure Humidity
    00:00 +17°C° 0 mm 2 mps 587 mmHg 24%
    01:00 +16°C° 0 mm 2 mps 587 mmHg 25%
    02:00 +16°C° 0 mm 2 mps 586 mmHg 26%
    03:00 +15°C° 0 mm 1 mps 586 mmHg 26%
    04:00 +15°C° 0 mm 1 mps 586 mmHg 27%
    05:00 +14°C° 0 mm 1 mps 586 mmHg 28%
    06:00 +15°C° 0 mm 1 mps 586 mmHg 26%
    07:00 +16°C° 0 mm 1 mps 587 mmHg 24%
    08:00 +18°C° 0 mm 1 mps 588 mmHg 23%
    09:00 +19°C° 0 mm 1 mps 588 mmHg 20%
    10:00 +20°C° 0 mm 1 mps 589 mmHg 17%
    11:00 +22°C° 0 mm 1 mps 589 mmHg 15%
    12:00 +23°C° 0 mm 2 mps 589 mmHg 14%
    13:00 +24°C° 0 mm 2 mps 589 mmHg 12%
    14:00 +25°C° 0 mm 3 mps 589 mmHg 11%
    15:00 +25°C° 0 mm 3 mps 589 mmHg 11%
    16:00 +25°C° 0 mm 4 mps 588 mmHg 11%
    17:00 +25°C° 0 mm 4 mps 588 mmHg 11%
    18:00 +23°C° 0 mm 4 mps 588 mmHg 12%
    19:00 +21°C° 0 mm 4 mps 588 mmHg 14%
    20:00 +20°C° 0 mm 3 mps 588 mmHg 15%
    21:00 +19°C° 0 mm 3 mps 588 mmHg 16%
    22:00 +19°C° 0 mm 3 mps 588 mmHg 17%
    23:00 +18°C° 0 mm 3 mps 588 mmHg 17%

    26 September, Wednesday

    Time Temperature Precipitation Wind Pressure Humidity
    00:00 +17°C° 0 mm 2 mps 587 mmHg 18%
    01:00 +16°C° 0 mm 2 mps 587 mmHg 20%
    02:00 +16°C° 0 mm 2 mps 586 mmHg 21%
    03:00 +15°C° 0 mm 2 mps 586 mmHg 22%
    04:00 +15°C° 0 mm 2 mps 586 mmHg 23%
    05:00 +14°C° 0 mm 2 mps 585 mmHg 25%
    06:00 +15°C° 0 mm 2 mps 586 mmHg 23%
    07:00 +16°C° 0 mm 2 mps 587 mmHg 22%
    08:00 +17°C° 0 mm 2 mps 587 mmHg 21%
    09:00 +19°C° 0 mm 1 mps 588 mmHg 19%
    10:00 +20°C° 0 mm 1 mps 588 mmHg 17%
    11:00 +22°C° 0 mm 1 mps 589 mmHg 14%
    12:00 +23°C° 0 mm 2 mps 589 mmHg 13%
    13:00 +24°C° 0 mm 2 mps 588 mmHg 12%
    14:00 +25°C° 0 mm 3 mps 588 mmHg 11%
    15:00 +25°C° 0 mm 3 mps 588 mmHg 11%
    16:00 +25°C° 0 mm 4 mps 588 mmHg 12%
    17:00 +25°C° 0 mm 4 mps 588 mmHg 12%
    18:00 +23°C° 0 mm 4 mps 588 mmHg 14%
    19:00 +22°C° 0 mm 4 mps 588 mmHg 15%
    20:00 +21°C° 0 mm 4 mps 588 mmHg 17%
    21:00 +20°C° 0 mm 3 mps 588 mmHg 19%
    22:00 +19°C° 0 mm 3 mps 588 mmHg 21%
    23:00 +18°C° 0 mm 2 mps 588 mmHg 23%
    Show more